Wetterdaten: Donnerstag, 19.03.2015
Datum Zeit Auen-Temp. A-Temp. 2 Luftfeuchte Luftfeuchte Luftdruck Wind Richtung Richtung Taupunkt Windchill Windben
19.03.2015 00:00 2,8 C 3,3 C 72 % 72 % 1021,1 hPa 0,0 km/h (0 Bft) O-SO 112 -1,7 C 2,9 C 0,0 km/h (0 Bft)
19.03.2015 00:05 2,6 C 3,2 C 73 % 73 % 1021,1 hPa 0,0 km/h (0 Bft) O-SO 112 -1,7 C 2,8 C 0,0 km/h (0 Bft)
19.03.2015 00:10 2,7 C 3,3 C 73 % 73 % 1021,1 hPa 0,0 km/h (0 Bft) O-SO 112 -1,6 C 2,8 C 0,0 km/h (0 Bft)
19.03.2015 00:15 2,7 C 3,4 C 73 % 73 % 1021,1 hPa 0,0 km/h (0 Bft) O-SO 112 -1,6 C 2,9 C 0,0 km/h (0 Bft)
19.03.2015 00:20 2,7 C 3,4 C 73 % 73 % 1021,1 hPa 0,0 km/h (0 Bft) S 180 -1,6 C 2,8 C 0,0 km/h (0 Bft)
19.03.2015 00:25 2,8 C 3,4 C 73 % 73 % 1021,0 hPa 0,0 km/h (0 Bft) SO 135 -1,5 C 2,8 C 0,0 km/h (0 Bft)
19.03.2015 00:30 2,4 C 3,2 C 73 % 73 % 1021,0 hPa 0,0 km/h (0 Bft) SO 135 -1,9 C 2,7 C 0,0 km/h (0 Bft)
19.03.2015 00:35 2,0 C 2,9 C 74 % 74 % 1021,0 hPa 0,0 km/h (0 Bft) SO 135 -2,1 C 2,4 C 0,0 km/h (0 Bft)
19.03.2015 00:40 1,8 C 2,7 C 75 % 75 % 1021,0 hPa 0,0 km/h (0 Bft) SO 135 -2,1 C 2,1 C 0,0 km/h (0 Bft)
19.03.2015 00:45 1,9 C 2,6 C 75 % 75 % 1020,8 hPa 0,0 km/h (0 Bft) SO 135 -2,1 C 2,0 C 0,0 km/h (0 Bft)
19.03.2015 00:50 2,0 C 2,6 C 75 % 75 % 1020,8 hPa 0,0 km/h (0 Bft) SO 135 -2,0 C 2,0 C 0,0 km/h (0 Bft)
19.03.2015 00:55 2,1 C 2,9 C 76 % 76 % 1020,8 hPa 0,0 km/h (0 Bft) S-SO 157 -1,7 C 2,2 C 0,0 km/h (0 Bft)
19.03.2015 01:00 2,2 C 2,9 C 76 % 76 % 1020,8 hPa 0,0 km/h (0 Bft) SO 135 -1,6 C 2,2 C 0,0 km/h (0 Bft)
19.03.2015 01:05 2,0 C 2,7 C 75 % 75 % 1020,8 hPa 0,0 km/h (0 Bft) SO 135 -2,0 C 2,1 C 0,0 km/h (0 Bft)
19.03.2015 01:10 2,0 C 2,6 C 76 % 76 % 1020,8 hPa 0,0 km/h (0 Bft) S-SO 157 -1,8 C 2,0 C 0,0 km/h (0 Bft)
19.03.2015 01:15 1,9 C 2,5 C 76 % 76 % 1020,8 hPa 0,0 km/h (0 Bft) S-SO 157 -1,9 C 1,9 C 0,0 km/h (0 Bft)
19.03.2015 01:20 1,7 C 2,4 C 76 % 76 % 1020,8 hPa 0,0 km/h (0 Bft) S-SO 157 -2,1 C 1,9 C 0,0 km/h (0 Bft)
19.03.2015 01:25 1,6 C 2,3 C 76 % 76 % 1020,9 hPa 0,0 km/h (0 Bft) SO 135 -2,2 C 1,8 C 0,0 km/h (0 Bft)
19.03.2015 01:30 1,5 C 2,2 C 76 % 76 % 1020,9 hPa 0,0 km/h (0 Bft) SO 135 -2,3 C 1,7 C 0,0 km/h (0 Bft)
19.03.2015 01:35 1,8 C 2,4 C 76 % 76 % 1020,9 hPa 0,0 km/h (0 Bft) SO 135 -2,0 C 1,9 C 0,0 km/h (0 Bft)
19.03.2015 01:40 2,3 C 2,7 C 77 % 77 % 1020,9 hPa 0,0 km/h (0 Bft) SO 135 -1,3 C 2,1 C 0,0 km/h (0 Bft)
19.03.2015 01:45 2,2 C 3,0 C 76 % 76 % 1020,9 hPa 0,0 km/h (0 Bft) SO 135 -1,6 C 2,5 C 0,0 km/h (0 Bft)
19.03.2015 01:50 2,5 C 3,0 C 76 % 76 % 1020,9 hPa 0,3 km/h (0 Bft) O-NO 67 -1,3 C 2,5 C 0,0 km/h (0 Bft)
19.03.2015 01:55 2,6 C 3,0 C 76 % 76 % 1020,9 hPa 0,3 km/h (0 Bft) SO 135 -1,2 C 2,5 C 0,0 km/h (0 Bft)
19.03.2015 02:00 2,8 C 3,3 C 76 % 76 % 1020,9 hPa 0,2 km/h (0 Bft) SO 135 -1,0 C 2,8 C 2,4 km/h (1 Bft)
19.03.2015 02:05 2,7 C 3,4 C 76 % 76 % 1020,6 hPa 0,2 km/h (0 Bft) NO 45 -1,1 C 2,9 C 0,0 km/h (0 Bft)
19.03.2015 02:10 2,4 C 3,2 C 76 % 76 % 1020,6 hPa 0,2 km/h (0 Bft) SO 135 -1,4 C 2,7 C 0,0 km/h (0 Bft)
19.03.2015 02:15 2,4 C 3,1 C 76 % 76 % 1020,6 hPa 0,2 km/h (0 Bft) NO 45 -1,4 C 2,7 C 0,0 km/h (0 Bft)
19.03.2015 02:20 2,1 C 2,9 C 76 % 76 % 1020,6 hPa 0,0 km/h (0 Bft) O-NO 67 -1,7 C 2,5 C 0,0 km/h (0 Bft)
19.03.2015 02:25 1,9 C 2,6 C 76 % 76 % 1020,4 hPa 0,0 km/h (0 Bft) NO 45 -1,9 C 2,1 C 0,0 km/h (0 Bft)
19.03.2015 02:30 1,8 C 2,5 C 76 % 76 % 1020,4 hPa 0,0 km/h (0 Bft) SO 135 -2,0 C 2,0 C 0,0 km/h (0 Bft)
19.03.2015 02:35 1,9 C 2,7 C 77 % 77 % 1020,4 hPa 0,0 km/h (0 Bft) O-SO 112 -1,7 C 2,1 C 0,0 km/h (0 Bft)
19.03.2015 02:40 1,8 C 2,6 C 77 % 77 % 1020,4 hPa 0,0 km/h (0 Bft) O-SO 112 -1,8 C 2,0 C 0,0 km/h (0 Bft)
19.03.2015 02:45 1,5 C 2,4 C 76 % 76 % 1020,5 hPa 0,0 km/h (0 Bft) SO 135 -2,3 C 1,8 C 0,0 km/h (0 Bft)
19.03.2015 02:50 1,3 C 2,2 C 77 % 77 % 1020,5 hPa 0,0 km/h (0 Bft) S 180 -2,3 C 1,6 C 0,0 km/h (0 Bft)
19.03.2015 02:55 1,2 C 2,0 C 77 % 77 % 1020,5 hPa 0,0 km/h (0 Bft) O-NO 67 -2,4 C 1,4 C 0,0 km/h (0 Bft)
19.03.2015 03:00 1,2 C 1,9 C 77 % 77 % 1020,5 hPa 0,0 km/h (0 Bft) O-NO 67 -2,4 C 1,3 C 0,0 km/h (0 Bft)
19.03.2015 03:05 1,3 C 1,9 C 77 % 77 % 1020,4 hPa 0,0 km/h (0 Bft) O-NO 67 -2,3 C 1,3 C 0,0 km/h (0 Bft)
19.03.2015 03:10 1,2 C 1,9 C 77 % 77 % 1020,4 hPa 0,0 km/h (0 Bft) O-NO 67 -2,4 C 1,3 C 0,0 km/h (0 Bft)
19.03.2015 03:15 1,5 C 1,9 C 78 % 78 % 1020,4 hPa 0,0 km/h (0 Bft) W-NW 292 -1,9 C 1,3 C 0,0 km/h (0 Bft)
19.03.2015 03:20 1,4 C 1,9 C 78 % 78 % 1020,4 hPa 0,0 km/h (0 Bft) W-SW 247 -2,0 C 1,3 C 0,0 km/h (0 Bft)
19.03.2015 03:25 1,4 C 1,9 C 78 % 78 % 1020,5 hPa 0,0 km/h (0 Bft) NO 45 -2,0 C 1,4 C 0,0 km/h (0 Bft)
19.03.2015 03:30 1,0 C 1,6 C 78 % 78 % 1020,5 hPa 0,0 km/h (0 Bft) W 270 -2,4 C 1,1 C 0,0 km/h (0 Bft)
19.03.2015 03:35 1,0 C 1,4 C 78 % 78 % 1020,5 hPa 0,0 km/h (0 Bft) O-NO 67 -2,4 C 0,9 C 0,0 km/h (0 Bft)
19.03.2015 03:40 1,0 C 1,3 C 78 % 78 % 1020,5 hPa 0,0 km/h (0 Bft) N 360 -2,4 C 0,8 C 0,0 km/h (0 Bft)
19.03.2015 03:45 0,6 C 1,1 C 78 % 78 % 1020,5 hPa 0,0 km/h (0 Bft) O-NO 67 -2,8 C 0,6 C 0,0 km/h (0 Bft)
19.03.2015 03:50 0,5 C 1,1 C 78 % 78 % 1020,5 hPa 0,0 km/h (0 Bft) O-NO 67 -2,9 C 0,5 C 0,0 km/h (0 Bft)
19.03.2015 03:55 0,3 C 1,0 C 78 % 78 % 1020,5 hPa 0,0 km/h (0 Bft) S 180 -3,1 C 0,4 C 0,0 km/h (0 Bft)
19.03.2015 04:00 1,3 C 1,5 C 78 % 78 % 1020,5 hPa 0,8 km/h (0 Bft) S 180 -2,1 C 0,8 C 4,2 km/h (1 Bft)
19.03.2015 04:05 1,0 C 1,5 C 78 % 78 % 1020,5 hPa 1,0 km/h (0 Bft) SO 135 -2,4 C 0,9 C 0,0 km/h (0 Bft)
19.03.2015 04:10 1,3 C 1,8 C 79 % 79 % 1020,5 hPa 0,8 km/h (0 Bft) SO 135 -1,9 C 1,1 C 4,2 km/h (1 Bft)
19.03.2015 04:15 1,1 C 1,9 C 79 % 79 % 1020,5 hPa 0,5 km/h (0 Bft) N-NW 337 -2,1 C 1,3 C 0,0 km/h (0 Bft)
19.03.2015 04:20 0,5 C 1,4 C 78 % 78 % 1020,5 hPa 0,2 km/h (0 Bft) NO 45 -2,9 C 0,8 C 0,0 km/h (0 Bft)
19.03.2015 04:25 0,1 C 1,0 C 78 % 78 % 1020,4 hPa 0,0 km/h (0 Bft) NO 45 -3,3 C 0,4 C 0,0 km/h (0 Bft)
19.03.2015 04:30 0,1 C 0,7 C 78 % 78 % 1020,4 hPa 0,0 km/h (0 Bft) NO 45 -3,3 C 0,1 C 0,0 km/h (0 Bft)
19.03.2015 04:35 0,0 C 0,7 C 78 % 78 % 1020,4 hPa 0,0 km/h (0 Bft) O 90 -3,4 C 0,1 C 0,0 km/h (0 Bft)
19.03.2015 04:40 0,1 C 0,8 C 79 % 79 % 1020,4 hPa 0,0 km/h (0 Bft) SW 225 -3,1 C 0,1 C 0,0 km/h (0 Bft)
19.03.2015 04:45 -0,1 C 0,7 C 79 % 79 % 1020,2 hPa 0,0 km/h (0 Bft) S 180 -3,3 C 0,0 C 0,0 km/h (0 Bft)
19.03.2015 04:50 -0,3 C 0,5 C 79 % 79 % 1020,2 hPa 0,0 km/h (0 Bft) O-SO 112 -3,5 C -0,1 C 0,0 km/h (0 Bft)
19.03.2015 04:55 -0,2 C 0,5 C 79 % 79 % 1020,2 hPa 0,0 km/h (0 Bft) O-SO 112 -3,4 C -0,1 C 0,0 km/h (0 Bft)
19.03.2015 05:00 -0,3 C 0,5 C 79 % 79 % 1020,2 hPa 0,0 km/h (0 Bft) O-SO 112 -3,5 C -0,1 C 0,0 km/h (0 Bft)
19.03.2015 05:05 -0,3 C 0,3 C 79 % 79 % 1020,5 hPa 0,0 km/h (0 Bft) O 90 -3,5 C -0,3 C 0,0 km/h (0 Bft)
19.03.2015 05:10 -0,3 C 0,3 C 79 % 79 % 1020,5 hPa 0,0 km/h (0 Bft) O 90 -3,5 C -0,3 C 0,0 km/h (0 Bft)
19.03.2015 05:15 -0,1 C 0,5 C 79 % 79 % 1020,5 hPa 0,0 km/h (0 Bft) O 90 -3,3 C -0,1 C 0,0 km/h (0 Bft)
19.03.2015 05:20 -0,2 C 0,4 C 79 % 79 % 1023,1 hPa 0,0 km/h (0 Bft) SW 225 -3,4 C -0,2 C 0,0 km/h (0 Bft)
19.03.2015 05:25 -0,4 C 0,3 C 79 % 79 % 1021,3 hPa 0,0 km/h (0 Bft) S-SO 157 -3,6 C -0,3 C 0,0 km/h (0 Bft)
19.03.2015 05:30 -0,5 C 0,2 C 79 % 79 % 1021,3 hPa 0,0 km/h (0 Bft) S 180 -3,7 C -0,4 C 0,0 km/h (0 Bft)
19.03.2015 05:35 -0,5 C 0,1 C 80 % 80 % 1021,3 hPa 0,0 km/h (0 Bft) W-SW 247 -3,5 C -0,6 C 0,0 km/h (0 Bft)
19.03.2015 05:40 -0,6 C 0,1 C 80 % 80 % 1021,3 hPa 0,0 km/h (0 Bft) W-SW 247 -3,6 C -0,6 C 0,0 km/h (0 Bft)
19.03.2015 05:45 -0,9 C -0,2 C 80 % 80 % 1021,5 hPa 0,0 km/h (0 Bft) NO 45 -3,9 C -0,8 C 0,0 km/h (0 Bft)
19.03.2015 05:50 -0,8 C -0,3 C 80 % 80 % 1021,5 hPa 0,0 km/h (0 Bft) O-NO 67 -3,8 C -0,9 C 0,0 km/h (0 Bft)
19.03.2015 05:55 -0,6 C -0,2 C 80 % 80 % 1021,5 hPa 0,0 km/h (0 Bft) O-SO 112 -3,6 C -0,7 C 0,0 km/h (0 Bft)
19.03.2015 06:00 -0,6 C 0,1 C 80 % 80 % 1021,5 hPa 0,0 km/h (0 Bft) O 90 -3,6 C -0,5 C 0,0 km/h (0 Bft)
19.03.2015 06:05 -0,6 C 0,1 C 80 % 80 % 1021,6 hPa 0,0 km/h (0 Bft) O-SO 112 -3,6 C -0,6 C 0,0 km/h (0 Bft)
19.03.2015 06:10 -0,7 C 0,1 C 80 % 80 % 1021,6 hPa 0,0 km/h (0 Bft) O-SO 112 -3,7 C -0,6 C 0,0 km/h (0 Bft)
19.03.2015 06:15 -0,7 C -0,2 C 81 % 81 % 1021,6 hPa 0,0 km/h (0 Bft) W-SW 247 -3,5 C -0,9 C 0,0 km/h (0 Bft)
19.03.2015 06:20 -0,1 C 0,2 C 81 % 81 % 1021,6 hPa 0,2 km/h (0 Bft) NO 45 -3,0 C -0,5 C 0,0 km/h (0 Bft)
19.03.2015 06:25 -0,7 C 0,1 C 81 % 81 % 1021,9 hPa 0,2 km/h (0 Bft) NO 45 -3,5 C -0,5 C 0,0 km/h (0 Bft)
19.03.2015 06:30 -0,4 C 0,1 C 81 % 81 % 1021,9 hPa 0,3 km/h (0 Bft) SO 135 -3,3 C -0,5 C 2,4 km/h (1 Bft)
19.03.2015 06:35 0,6 C 1,0 C 82 % 82 % 1021,9 hPa 1,0 km/h (0 Bft) SO 135 -2,1 C 0,3 C 2,4 km/h (1 Bft)
19.03.2015 06:40 0,3 C 1,0 C 82 % 82 % 1021,9 hPa 1,1 km/h (1 Bft) N-NO 22 -2,4 C 0,4 C 0,0 km/h (0 Bft)
19.03.2015 06:45 -0,5 C 0,4 C 81 % 81 % 1022,0 hPa 0,5 km/h (0 Bft) O-NO 67 -3,3 C -0,1 C 0,0 km/h (0 Bft)
19.03.2015 06:50 -0,7 C 0,2 C 81 % 81 % 1022,0 hPa 0,0 km/h (0 Bft) N 360 -3,5 C -0,3 C 0,0 km/h (0 Bft)
19.03.2015 06:55 -0,5 C 0,1 C 81 % 81 % 1022,0 hPa 0,0 km/h (0 Bft) NO 45 -3,3 C -0,4 C 0,0 km/h (0 Bft)
19.03.2015 07:00 -0,4 C 0,1 C 81 % 81 % 1022,0 hPa 0,0 km/h (0 Bft) O-NO 67 -3,3 C -0,4 C 0,0 km/h (0 Bft)
19.03.2015 07:05 -0,4 C 0,0 C 81 % 81 % 1022,1 hPa 0,0 km/h (0 Bft) O 90 -3,3 C -0,4 C 0,0 km/h (0 Bft)
19.03.2015 07:10 -0,2 C 0,1 C 81 % 81 % 1022,1 hPa 0,0 km/h (0 Bft) O-NO 67 -3,1 C -0,3 C 0,0 km/h (0 Bft)
19.03.2015 07:15 0,0 C 0,2 C 81 % 81 % 1022,1 hPa 0,0 km/h (0 Bft) O 90 -2,9 C -0,1 C 0,0 km/h (0 Bft)
19.03.2015 07:20 0,4 C 0,4 C 82 % 82 % 1022,1 hPa 0,0 km/h (0 Bft) S-SO 157 -2,3 C 0,1 C 0,0 km/h (0 Bft)
19.03.2015 07:25 1,2 C 1,3 C 82 % 82 % 1022,2 hPa 0,0 km/h (0 Bft) O-SO 112 -1,5 C 1,0 C 0,0 km/h (0 Bft)
19.03.2015 07:30 1,7 C 2,0 C 82 % 82 % 1022,2 hPa 0,2 km/h (0 Bft) S-SO 157 -1,0 C 1,6 C 0,0 km/h (0 Bft)
19.03.2015 07:35 1,5 C 2,1 C 82 % 82 % 1022,2 hPa 0,2 km/h (0 Bft) NO 45 -1,2 C 1,8 C 0,0 km/h (0 Bft)
19.03.2015 07:40 1,3 C 1,9 C 82 % 82 % 1022,2 hPa 0,0 km/h (0 Bft) N-NO 22 -1,4 C 1,7 C 0,0 km/h (0 Bft)
19.03.2015 07:45 1,4 C 1,8 C 81 % 81 % 1022,3 hPa 0,0 km/h (0 Bft) O-NO 67 -1,5 C 1,7 C 0,0 km/h (0 Bft)
19.03.2015 07:50 1,5 C 1,9 C 81 % 81 % 1022,3 hPa 0,0 km/h (0 Bft) O-NO 67 -1,4 C 1,8 C 0,0 km/h (0 Bft)
19.03.2015 07:55 1,9 C 2,0 C 81 % 81 % 1022,3 hPa 0,0 km/h (0 Bft) NO 45 -1,0 C 2,1 C 0,0 km/h (0 Bft)
19.03.2015 08:00 2,1 C 2,1 C 81 % 81 % 1022,3 hPa 0,0 km/h (0 Bft) O-NO 67 -0,8 C 3,9 C 0,0 km/h (0 Bft)
19.03.2015 08:05 2,3 C 2,3 C 81 % 81 % 1022,4 hPa 0,0 km/h (0 Bft) O-NO 67 -0,6 C 4,0 C 0,0 km/h (0 Bft)
19.03.2015 08:10 2,5 C 2,5 C 81 % 81 % 1022,4 hPa 0,0 km/h (0 Bft) O-NO 67 -0,4 C 3,8 C 0,0 km/h (0 Bft)
19.03.2015 08:15 2,7 C 2,7 C 80 % 80 % 1022,4 hPa 0,0 km/h (0 Bft) O-NO 67 -0,4 C 3,6 C 0,0 km/h (0 Bft)
19.03.2015 08:20 2,7 C 2,7 C 80 % 80 % 1022,4 hPa 0,0 km/h (0 Bft) O-NO 67 -0,4 C 3,6 C 0,0 km/h (0 Bft)
19.03.2015 08:25 3,0 C 3,0 C 79 % 79 % 1022,9 hPa 0,0 km/h (0 Bft) SO 135 -0,3 C 4,2 C 0,0 km/h (0 Bft)
19.03.2015 08:30 3,4 C 3,4 C 79 % 79 % 1022,9 hPa 0,0 km/h (0 Bft) SW 225 0,1 C 5,1 C 0,0 km/h (0 Bft)
19.03.2015 08:35 3,8 C 3,8 C 79 % 79 % 1022,9 hPa 0,0 km/h (0 Bft) SW 225 0,5 C 6,7 C 0,0 km/h (0 Bft)
19.03.2015 08:40 4,0 C 4,0 C 79 % 79 % 1022,9 hPa 0,0 km/h (0 Bft) O-NO 67 0,7 C 6,8 C 0,0 km/h (0 Bft)
19.03.2015 08:45 4,2 C 4,2 C 78 % 78 % 1022,9 hPa 0,0 km/h (0 Bft) O-NO 67 0,7 C 7,1 C 0,0 km/h (0 Bft)
19.03.2015 08:50 4,5 C 4,5 C 78 % 78 % 1022,9 hPa 0,0 km/h (0 Bft) O-NO 67 1,0 C 7,3 C 0,0 km/h (0 Bft)
19.03.2015 08:55 4,6 C 4,6 C 78 % 78 % 1022,9 hPa 0,0 km/h (0 Bft) O-NO 67 1,1 C 7,2 C 0,0 km/h (0 Bft)
19.03.2015 09:00 4,7 C 4,7 C 77 % 77 % 1022,9 hPa 0,0 km/h (0 Bft) O-SO 112 1,0 C 7,2 C 0,0 km/h (0 Bft)
19.03.2015 09:05 5,0 C 5,0 C 77 % 77 % 1022,9 hPa 0,0 km/h (0 Bft) NO 45 1,3 C 7,6 C 0,0 km/h (0 Bft)
19.03.2015 09:10 5,4 C 5,4 C 77 % 77 % 1022,9 hPa 0,0 km/h (0 Bft) O-NO 67 1,7 C 7,9 C 0,0 km/h (0 Bft)
19.03.2015 09:15 5,9 C 5,9 C 76 % 76 % 1022,9 hPa 0,0 km/h (0 Bft) NO 45 2,0 C 8,7 C 0,0 km/h (0 Bft)
19.03.2015 09:20 6,1 C 6,1 C 75 % 75 % 1022,9 hPa 0,0 km/h (0 Bft) NO 45 2,0 C 9,4 C 0,0 km/h (0 Bft)
19.03.2015 09:25 6,5 C 6,5 C 74 % 74 % 1023,1 hPa 0,0 km/h (0 Bft) O-NO 67 2,2 C 10,1 C 0,0 km/h (0 Bft)
19.03.2015 09:30 6,5 C 6,5 C 74 % 74 % 1023,1 hPa 0,0 km/h (0 Bft) O-NO 67 2,2 C 10,3 C 0,0 km/h (0 Bft)
19.03.2015 09:35 6,8 C 6,8 C 73 % 73 % 1023,1 hPa 0,0 km/h (0 Bft) N-NO 22 2,3 C 10,6 C 0,0 km/h (0 Bft)
19.03.2015 09:40 7,1 C 7,1 C 73 % 73 % 1023,1 hPa 0,0 km/h (0 Bft) NO 45 2,6 C 11,3 C 0,0 km/h (0 Bft)
19.03.2015 09:45 7,5 C 7,5 C 72 % 72 % 1023,3 hPa 0,0 km/h (0 Bft) O-NO 67 2,8 C 12,1 C 0,0 km/h (0 Bft)
19.03.2015 09:50 7,8 C 7,8 C 71 % 71 % 1023,3 hPa 0,0 km/h (0 Bft) NO 45 2,9 C 13,1 C 0,0 km/h (0 Bft)
19.03.2015 09:55 8,0 C 8,0 C 70 % 70 % 1023,3 hPa 0,0 km/h (0 Bft) S-SO 157 2,9 C 13,4 C 0,0 km/h (0 Bft)
19.03.2015 10:00 8,2 C 8,2 C 70 % 70 % 1023,3 hPa 0,0 km/h (0 Bft) O-SO 112 3,1 C 13,5 C 0,0 km/h (0 Bft)
19.03.2015 10:05 8,9 C 8,9 C 69 % 69 % 1023,7 hPa 0,0 km/h (0 Bft) S-SO 157 3,5 C 14,7 C 0,0 km/h (0 Bft)
19.03.2015 10:10 9,8 C 9,8 C 69 % 69 % 1023,7 hPa 0,0 km/h (0 Bft) O-SO 112 4,4 C 16,6 C 0,0 km/h (0 Bft)
19.03.2015 10:15 10,2 C 10,2 C 66 % 66 % 1023,7 hPa 0,2 km/h (0 Bft) W 270 4,1 C 18,7 C 4,2 km/h (1 Bft)
19.03.2015 10:20 10,1 C 10,1 C 64 % 64 % 1023,7 hPa 1,0 km/h (0 Bft) N-NW 337 3,6 C 19,1 C 0,0 km/h (0 Bft)
19.03.2015 10:25 10,1 C 10,1 C 63 % 63 % 1023,9 hPa 1,3 km/h (1 Bft) NW 315 3,4 C 18,7 C 0,0 km/h (0 Bft)
19.03.2015 10:30 10,3 C 10,3 C 62 % 62 % 1023,9 hPa 0,8 km/h (0 Bft) W 270 3,3 C 19,1 C 3,7 km/h (1 Bft)
19.03.2015 10:35 10,2 C 10,2 C 61 % 61 % 1023,9 hPa 1,1 km/h (1 Bft) O-NO 67 3,0 C 18,8 C 2,9 km/h (1 Bft)
19.03.2015 10:40 10,3 C 10,3 C 60 % 60 % 1023,9 hPa 1,8 km/h (1 Bft) NO 45 2,9 C 18,5 C 3,9 km/h (1 Bft)
19.03.2015 10:45 10,8 C 10,8 C 59 % 59 % 1024,5 hPa 1,1 km/h (1 Bft) O-NO 67 3,1 C 18,8 C 3,5 km/h (1 Bft)
19.03.2015 10:50 10,9 C 10,9 C 58 % 58 % 1024,5 hPa 1,6 km/h (1 Bft) N-NW 337 3,0 C 18,7 C 4,5 km/h (1 Bft)
19.03.2015 10:55 10,9 C 10,9 C 57 % 57 % 1024,5 hPa 1,6 km/h (1 Bft) SO 135 2,7 C 18,7 C 1,8 km/h (1 Bft)
19.03.2015 11:00 11,1 C 11,1 C 57 % 57 % 1024,5 hPa 1,1 km/h (1 Bft) O-SO 112 2,9 C 18,9 C 5,0 km/h (1 Bft)
19.03.2015 11:05 11,4 C 11,4 C 56 % 56 % 1024,8 hPa 1,4 km/h (1 Bft) NW 315 2,9 C 18,9 C 4,8 km/h (1 Bft)
19.03.2015 11:10 11,2 C 11,2 C 56 % 56 % 1024,8 hPa 2,1 km/h (1 Bft) N-NO 22 2,8 C 18,7 C 5,5 km/h (1 Bft)
19.03.2015 11:15 11,1 C 11,1 C 54 % 54 % 1024,8 hPa 2,7 km/h (1 Bft) NO 45 2,2 C 18,7 C 2,3 km/h (1 Bft)
19.03.2015 11:20 11,2 C 11,2 C 54 % 54 % 1024,8 hPa 1,8 km/h (1 Bft) NO 45 2,2 C 19,1 C 3,5 km/h (1 Bft)
19.03.2015 11:25 11,5 C 11,5 C 54 % 54 % 1025,1 hPa 1,8 km/h (1 Bft) O-NO 67 2,5 C 19,1 C 4,3 km/h (1 Bft)
19.03.2015 11:30 11,4 C 11,4 C 53 % 53 % 1025,1 hPa 2,7 km/h (1 Bft) W 270 2,2 C 19,0 C 3,2 km/h (1 Bft)
19.03.2015 11:35 11,7 C 11,7 C 54 % 54 % 1025,1 hPa 2,3 km/h (1 Bft) SO 135 2,7 C 19,1 C 0,0 km/h (0 Bft)
19.03.2015 11:40 11,7 C 11,7 C 54 % 54 % 1025,1 hPa 1,0 km/h (0 Bft) SO 135 2,7 C 19,5 C 7,4 km/h (2 Bft)
19.03.2015 11:45 11,9 C 11,9 C 52 % 52 % 1025,5 hPa 1,1 km/h (1 Bft) N-NO 22 2,4 C 20,0 C 7,7 km/h (2 Bft)
19.03.2015 11:50 11,6 C 11,6 C 52 % 52 % 1025,5 hPa 2,3 km/h (1 Bft) N-NO 22 2,1 C 19,4 C 6,3 km/h (2 Bft)
19.03.2015 11:55 11,5 C 11,5 C 51 % 51 % 1025,5 hPa 2,9 km/h (1 Bft) NO 45 1,7 C 18,4 C 5,5 km/h (1 Bft)
19.03.2015 12:00 11,5 C 11,5 C 49 % 49 % 1025,5 hPa 3,4 km/h (1 Bft) N-NO 22 1,2 C 18,1 C 6,6 km/h (2 Bft)
19.03.2015 12:05 11,6 C 11,6 C 52 % 52 % 1025,5 hPa 2,6 km/h (1 Bft) O-SO 112 2,1 C 17,7 C 0,0 km/h (0 Bft)
19.03.2015 12:10 12,2 C 12,2 C 52 % 52 % 1025,5 hPa 1,4 km/h (1 Bft) SO 135 2,6 C 18,9 C 1,6 km/h (1 Bft)
19.03.2015 12:15 12,8 C 12,8 C 52 % 52 % 1025,5 hPa 0,6 km/h (0 Bft) SW 225 3,2 C 20,3 C 4,3 km/h (1 Bft)
19.03.2015 12:20 12,5 C 12,5 C 51 % 51 % 1025,5 hPa 1,8 km/h (1 Bft) W 270 2,6 C 20,5 C 4,8 km/h (1 Bft)
19.03.2015 12:25 12,1 C 12,1 C 51 % 51 % 1025,7 hPa 3,7 km/h (1 Bft) NW 315 2,3 C 20,0 C 6,4 km/h (2 Bft)
19.03.2015 12:30 12,0 C 12,0 C 51 % 51 % 1025,7 hPa 3,4 km/h (1 Bft) SW 225 2,2 C 19,5 C 2,1 km/h (1 Bft)
19.03.2015 12:35 12,1 C 12,1 C 51 % 51 % 1025,7 hPa 2,4 km/h (1 Bft) O-NO 67 2,3 C 19,7 C 0,0 km/h (0 Bft)
19.03.2015 12:40 12,1 C 12,1 C 52 % 52 % 1025,7 hPa 1,6 km/h (1 Bft) N 360 2,5 C 19,8 C 2,1 km/h (1 Bft)
19.03.2015 12:45 12,1 C 12,1 C 51 % 51 % 1025,8 hPa 2,9 km/h (1 Bft) W 270 2,3 C 19,5 C 3,2 km/h (1 Bft)
19.03.2015 12:50 12,1 C 12,1 C 49 % 49 % 1025,8 hPa 3,7 km/h (1 Bft) W-SW 247 1,7 C 19,4 C 9,5 km/h (2 Bft)
19.03.2015 12:55 12,3 C 12,3 C 50 % 50 % 1025,8 hPa 2,1 km/h (1 Bft) W 270 2,2 C 19,4 C 2,4 km/h (1 Bft)
19.03.2015 13:00 12,3 C 12,3 C 49 % 49 % 1025,8 hPa 1,9 km/h (1 Bft) W-NW 292 1,9 C 18,9 C 2,7 km/h (1 Bft)
19.03.2015 13:05 12,2 C 12,2 C 49 % 49 % 1025,2 hPa 1,9 km/h (1 Bft) O-SO 112 1,8 C 18,4 C 0,0 km/h (0 Bft)
19.03.2015 13:10 12,2 C 12,2 C 49 % 49 % 1025,2 hPa 1,8 km/h (1 Bft) W 270 1,8 C 18,0 C 3,2 km/h (1 Bft)
19.03.2015 13:15 12,6 C 12,6 C 51 % 51 % 1025,2 hPa 2,7 km/h (1 Bft) W-NW 292 2,7 C 17,3 C 6,1 km/h (2 Bft)
19.03.2015 13:20 12,8 C 12,8 C 49 % 49 % 1025,2 hPa 3,5 km/h (1 Bft) W 270 2,4 C 16,8 C 4,2 km/h (1 Bft)
19.03.2015 13:25 12,6 C 12,6 C 49 % 49 % 1024,8 hPa 4,3 km/h (1 Bft) W-SW 247 2,2 C 16,6 C 2,4 km/h (1 Bft)
19.03.2015 13:30 12,6 C 12,6 C 48 % 48 % 1024,8 hPa 4,2 km/h (1 Bft) W 270 1,9 C 16,8 C 4,0 km/h (1 Bft)
19.03.2015 13:35 12,7 C 12,7 C 49 % 49 % 1024,8 hPa 2,3 km/h (1 Bft) W 270 2,3 C 17,8 C 5,5 km/h (1 Bft)
19.03.2015 13:40 12,9 C 12,9 C 48 % 48 % 1024,8 hPa 2,4 km/h (1 Bft) N-NW 337 2,2 C 18,4 C 1,9 km/h (1 Bft)
19.03.2015 13:45 12,9 C 12,9 C 46 % 46 % 1024,7 hPa 4,2 km/h (1 Bft) NO 45 1,6 C 18,7 C 6,0 km/h (2 Bft)
19.03.2015 13:50 12,7 C 12,7 C 46 % 46 % 1024,7 hPa 4,0 km/h (1 Bft) W-NW 292 1,4 C 18,7 C 9,2 km/h (2 Bft)
19.03.2015 13:55 12,7 C 12,7 C 47 % 47 % 1024,7 hPa 3,7 km/h (1 Bft) W-NW 292 1,7 C 18,9 C 1,9 km/h (1 Bft)
19.03.2015 14:00 12,9 C 12,9 C 47 % 47 % 1024,7 hPa 3,5 km/h (1 Bft) W 270 1,9 C 19,3 C 5,6 km/h (1 Bft)
19.03.2015 14:05 13,0 C 13,0 C 46 % 46 % 1024,4 hPa 4,2 km/h (1 Bft) NW 315 1,7 C 19,1 C 7,9 km/h (2 Bft)
19.03.2015 14:10 12,8 C 12,8 C 46 % 46 % 1024,4 hPa 4,5 km/h (1 Bft) W 270 1,5 C 18,8 C 6,1 km/h (2 Bft)
19.03.2015 14:15 12,9 C 12,9 C 47 % 47 % 1024,4 hPa 4,5 km/h (1 Bft) W-NW 292 1,9 C 18,6 C 3,2 km/h (1 Bft)
19.03.2015 14:20 13,1 C 13,1 C 46 % 46 % 1024,4 hPa 3,2 km/h (1 Bft) W-SW 247 1,7 C 19,0 C 1,8 km/h (1 Bft)
19.03.2015 14:25 13,0 C 13,0 C 44 % 44 % 1023,9 hPa 3,1 km/h (1 Bft) O-NO 67 1,0 C 19,1 C 0,0 km/h (0 Bft)
19.03.2015 14:30 12,8 C 12,8 C 45 % 45 % 1023,9 hPa 3,7 km/h (1 Bft) O 90 1,2 C 18,8 C 4,2 km/h (1 Bft)
19.03.2015 14:35 12,8 C 12,8 C 45 % 45 % 1023,9 hPa 3,2 km/h (1 Bft) W 270 1,2 C 18,7 C 2,3 km/h (1 Bft)
19.03.2015 14:40 12,9 C 12,9 C 46 % 46 % 1023,9 hPa 2,1 km/h (1 Bft) N 360 1,6 C 18,9 C 10,1 km/h (2 Bft)
19.03.2015 14:45 13,1 C 13,1 C 45 % 45 % 1023,5 hPa 1,4 km/h (1 Bft) NW 315 1,4 C 19,7 C 9,3 km/h (2 Bft)
19.03.2015 14:50 13,0 C 13,0 C 44 % 44 % 1023,5 hPa 2,9 km/h (1 Bft) NW 315 1,0 C 19,4 C 6,4 km/h (2 Bft)
19.03.2015 14:55 12,8 C 12,8 C 44 % 44 % 1023,5 hPa 4,5 km/h (1 Bft) O-NO 67 0,9 C 18,7 C 6,9 km/h (2 Bft)
19.03.2015 15:00 12,4 C 12,4 C 44 % 44 % 1023,5 hPa 3,5 km/h (1 Bft) O 90 0,5 C 18,3 C 4,0 km/h (1 Bft)
19.03.2015 15:05 12,6 C 12,6 C 44 % 44 % 1023,1 hPa 2,9 km/h (1 Bft) NW 315 0,7 C 18,5 C 7,7 km/h (2 Bft)
19.03.2015 15:10 12,6 C 12,6 C 44 % 44 % 1023,1 hPa 2,9 km/h (1 Bft) W-SW 247 0,7 C 17,9 C 0,0 km/h (0 Bft)
19.03.2015 15:15 12,6 C 12,6 C 44 % 44 % 1023,1 hPa 3,5 km/h (1 Bft) N-NO 22 0,7 C 17,4 C 4,0 km/h (1 Bft)
19.03.2015 15:20 12,9 C 12,9 C 45 % 45 % 1023,1 hPa 2,6 km/h (1 Bft) NW 315 1,3 C 17,9 C 3,7 km/h (1 Bft)
19.03.2015 15:25 12,9 C 12,9 C 44 % 44 % 1022,8 hPa 2,7 km/h (1 Bft) NW 315 1,0 C 18,0 C 2,7 km/h (1 Bft)
19.03.2015 15:30 12,9 C 12,9 C 44 % 44 % 1022,8 hPa 3,7 km/h (1 Bft) W 270 1,0 C 17,9 C 3,4 km/h (1 Bft)
19.03.2015 15:35 12,8 C 12,8 C 44 % 44 % 1022,8 hPa 3,5 km/h (1 Bft) N-NO 22 0,9 C 17,7 C 2,1 km/h (1 Bft)
19.03.2015 15:40 12,7 C 12,7 C 44 % 44 % 1022,8 hPa 2,3 km/h (1 Bft) O-NO 67 0,8 C 17,9 C 2,1 km/h (1 Bft)
19.03.2015 15:45 12,5 C 12,5 C 44 % 44 % 1022,4 hPa 1,6 km/h (1 Bft) NW 315 0,6 C 18,2 C 3,9 km/h (1 Bft)
19.03.2015 15:50 12,6 C 12,6 C 43 % 43 % 1022,4 hPa 2,9 km/h (1 Bft) W-NW 292 0,4 C 17,8 C 3,5 km/h (1 Bft)
19.03.2015 15:55 12,6 C 12,6 C 44 % 44 % 1022,4 hPa 3,9 km/h (1 Bft) W 270 0,7 C 16,8 C 3,9 km/h (1 Bft)
19.03.2015 16:00 12,6 C 12,6 C 44 % 44 % 1022,4 hPa 2,7 km/h (1 Bft) W 270 0,7 C 16,2 C 2,4 km/h (1 Bft)
19.03.2015 16:05 12,4 C 12,4 C 44 % 44 % 1022,2 hPa 1,0 km/h (0 Bft) W-SW 247 0,5 C 15,6 C 0,0 km/h (0 Bft)
19.03.2015 16:10 12,3 C 12,3 C 43 % 43 % 1022,2 hPa 1,0 km/h (0 Bft) S-SO 157 0,1 C 15,4 C 0,0 km/h (0 Bft)
19.03.2015 16:15 12,4 C 12,4 C 44 % 44 % 1022,2 hPa 1,0 km/h (0 Bft) O-SO 112 0,5 C 15,5 C 0,0 km/h (0 Bft)
19.03.2015 16:20 12,2 C 12,2 C 44 % 44 % 1022,2 hPa 1,8 km/h (1 Bft) O 90 0,3 C 15,1 C 6,4 km/h (2 Bft)
19.03.2015 16:25 12,2 C 12,2 C 45 % 45 % 1022,2 hPa 3,7 km/h (1 Bft) O-NO 67 0,6 C 14,1 C 5,8 km/h (2 Bft)
19.03.2015 16:30 12,1 C 12,1 C 45 % 45 % 1022,2 hPa 4,2 km/h (1 Bft) NW 315 0,5 C 13,9 C 2,9 km/h (1 Bft)
19.03.2015 16:35 12,1 C 12,1 C 45 % 45 % 1022,2 hPa 3,7 km/h (1 Bft) N-NO 22 0,5 C 13,6 C 7,2 km/h (2 Bft)
19.03.2015 16:40 12,1 C 12,1 C 45 % 45 % 1022,2 hPa 3,7 km/h (1 Bft) N 360 0,5 C 13,4 C 6,9 km/h (2 Bft)
19.03.2015 16:45 11,9 C 11,9 C 46 % 46 % 1022,2 hPa 5,1 km/h (1 Bft) NO 45 0,7 C 13,1 C 10,3 km/h (2 Bft)
19.03.2015 16:50 11,7 C 11,7 C 46 % 46 % 1022,2 hPa 4,7 km/h (1 Bft) N-NW 337 0,5 C 12,4 C 2,9 km/h (1 Bft)
19.03.2015 16:55 11,5 C 11,5 C 47 % 47 % 1022,2 hPa 3,1 km/h (1 Bft) N-NW 337 0,6 C 11,9 C 3,1 km/h (1 Bft)
19.03.2015 17:00 11,5 C 11,5 C 47 % 47 % 1022,2 hPa 1,8 km/h (1 Bft) N-NW 337 0,6 C 11,8 C 3,1 km/h (1 Bft)
19.03.2015 17:05 11,3 C 11,3 C 47 % 47 % 1022,2 hPa 2,9 km/h (1 Bft) NO 45 0,4 C 11,5 C 3,4 km/h (1 Bft)
19.03.2015 17:10 11,2 C 11,2 C 47 % 47 % 1022,2 hPa 3,4 km/h (1 Bft) N-NW 337 0,3 C 11,3 C 3,7 km/h (1 Bft)
19.03.2015 17:15 11,1 C 11,2 C 47 % 47 % 1022,2 hPa 2,7 km/h (1 Bft) SO 135 0,2 C 11,1 C 1,9 km/h (1 Bft)
19.03.2015 17:20 10,9 C 11,0 C 48 % 48 % 1022,2 hPa 2,7 km/h (1 Bft) N-NO 22 0,3 C 10,9 C 3,7 km/h (1 Bft)
19.03.2015 17:25 10,9 C 11,0 C 48 % 48 % 1022,2 hPa 3,1 km/h (1 Bft) O-NO 67 0,3 C 10,9 C 3,9 km/h (1 Bft)
19.03.2015 17:30 10,5 C 10,8 C 48 % 48 % 1022,2 hPa 2,7 km/h (1 Bft) NW 315 -0,0 C 10,7 C 4,2 km/h (1 Bft)
19.03.2015 17:35 10,2 C 10,5 C 49 % 49 % 1022,2 hPa 1,4 km/h (1 Bft) O-NO 67 -0,0 C 10,4 C 0,0 km/h (0 Bft)
19.03.2015 17:40 10,0 C 10,4 C 49 % 49 % 1022,2 hPa 1,0 km/h (0 Bft) O-NO 67 -0,2 C 10,2 C 0,0 km/h (0 Bft)
19.03.2015 17:45 9,8 C 10,2 C 49 % 49 % 1022,1 hPa 0,8 km/h (0 Bft) O-NO 67 -0,4 C 10,0 C 0,0 km/h (0 Bft)
19.03.2015 17:50 9,6 C 10,1 C 49 % 49 % 1022,1 hPa 0,6 km/h (0 Bft) N-NW 337 -0,6 C 9,8 C 0,0 km/h (0 Bft)
19.03.2015 17:55 9,2 C 9,9 C 50 % 50 % 1022,1 hPa 0,2 km/h (0 Bft) NW 315 -0,7 C 9,6 C 0,0 km/h (0 Bft)
19.03.2015 18:00 8,7 C 9,7 C 50 % 50 % 1022,1 hPa 0,0 km/h (0 Bft) NW 315 -1,1 C 9,3 C 0,0 km/h (0 Bft)
19.03.2015 18:05 8,6 C 9,6 C 51 % 51 % 1022,3 hPa 0,2 km/h (0 Bft) O-NO 67 -1,0 C 9,1 C 1,8 km/h (1 Bft)
19.03.2015 18:10 8,6 C 9,5 C 51 % 51 % 1022,3 hPa 0,2 km/h (0 Bft) O-NO 67 -1,0 C 9,1 C 0,0 km/h (0 Bft)
19.03.2015 18:15 8,0 C 9,2 C 51 % 51 % 1022,3 hPa 0,2 km/h (0 Bft) O 90 -1,5 C 8,7 C 0,0 km/h (0 Bft)
19.03.2015 18:20 7,8 C 9,1 C 51 % 51 % 1022,3 hPa 0,0 km/h (0 Bft) O-NO 67 -1,7 C 8,5 C 0,0 km/h (0 Bft)
19.03.2015 18:25 7,8 C 9,0 C 52 % 52 % 1022,3 hPa 0,2 km/h (0 Bft) O-SO 112 -1,4 C 8,3 C 0,0 km/h (0 Bft)
19.03.2015 18:30 7,8 C 9,0 C 52 % 52 % 1022,3 hPa 0,3 km/h (0 Bft) SO 135 -1,4 C 8,3 C 1,6 km/h (1 Bft)
19.03.2015 18:35 7,7 C 8,8 C 53 % 53 % 1022,3 hPa 0,6 km/h (0 Bft) SO 135 -1,3 C 8,1 C 2,3 km/h (1 Bft)
19.03.2015 18:40 7,7 C 8,7 C 53 % 53 % 1022,3 hPa 1,1 km/h (1 Bft) O-SO 112 -1,3 C 8,0 C 2,3 km/h (1 Bft)
19.03.2015 18:45 7,6 C 8,5 C 53 % 53 % 1022,5 hPa 1,1 km/h (1 Bft) SO 135 -1,4 C 7,9 C 2,6 km/h (1 Bft)
19.03.2015 18:50 7,4 C 8,3 C 54 % 54 % 1022,5 hPa 1,3 km/h (1 Bft) S-SO 157 -1,3 C 7,7 C 1,8 km/h (1 Bft)
19.03.2015 18:55 6,7 C 7,7 C 55 % 55 % 1022,5 hPa 1,0 km/h (0 Bft) S-SO 157 -1,7 C 7,2 C 0,0 km/h (0 Bft)
19.03.2015 19:00 6,8 C 7,8 C 55 % 55 % 1022,5 hPa 0,5 km/h (0 Bft) SO 135 -1,6 C 7,2 C 1,6 km/h (1 Bft)
19.03.2015 19:05 6,7 C 7,6 C 55 % 55 % 1022,5 hPa 0,5 km/h (0 Bft) SO 135 -1,7 C 7,0 C 0,0 km/h (0 Bft)
19.03.2015 19:10 5,9 C 7,3 C 55 % 55 % 1022,5 hPa 0,3 km/h (0 Bft) SO 135 -2,4 C 6,7 C 0,0 km/h (0 Bft)
19.03.2015 19:15 5,3 C 6,6 C 56 % 56 % 1022,5 hPa 0,0 km/h (0 Bft) SO 135 -2,8 C 6,0 C 0,0 km/h (0 Bft)
19.03.2015 19:20 5,1 C 6,3 C 56 % 56 % 1022,5 hPa 0,0 km/h (0 Bft) SO 135 -2,9 C 5,6 C 0,0 km/h (0 Bft)
19.03.2015 19:25 5,5 C 6,3 C 57 % 57 % 1022,6 hPa 0,0 km/h (0 Bft) O-SO 112 -2,3 C 5,5 C 0,0 km/h (0 Bft)
19.03.2015 19:30 5,6 C 6,4 C 57 % 57 % 1022,6 hPa 0,3 km/h (0 Bft) S 180 -2,2 C 5,6 C 1,8 km/h (1 Bft)
19.03.2015 19:35 5,7 C 6,5 C 57 % 57 % 1022,6 hPa 0,5 km/h (0 Bft) SO 135 -2,1 C 5,8 C 1,9 km/h (1 Bft)
19.03.2015 19:40 5,5 C 6,3 C 57 % 57 % 1022,6 hPa 0,5 km/h (0 Bft) SO 135 -2,3 C 5,6 C 1,6 km/h (1 Bft)
19.03.2015 19:45 5,1 C 5,9 C 58 % 58 % 1022,9 hPa 0,5 km/h (0 Bft) SO 135 -2,5 C 5,3 C 2,3 km/h (1 Bft)
19.03.2015 19:50 5,1 C 6,0 C 58 % 58 % 1022,9 hPa 0,5 km/h (0 Bft) SO 135 -2,5 C 5,3 C 2,1 km/h (1 Bft)
19.03.2015 19:55 4,9 C 5,6 C 59 % 59 % 1022,9 hPa 1,0 km/h (0 Bft) SO 135 -2,4 C 5,0 C 2,1 km/h (1 Bft)
19.03.2015 20:00 4,9 C 5,8 C 59 % 59 % 1022,9 hPa 1,4 km/h (1 Bft) SO 135 -2,4 C 5,1 C 2,1 km/h (1 Bft)
19.03.2015 20:05 4,9 C 5,5 C 59 % 59 % 1022,9 hPa 1,6 km/h (1 Bft) O-SO 112 -2,4 C 4,9 C 0,0 km/h (0 Bft)
19.03.2015 20:10 4,9 C 5,2 C 59 % 59 % 1022,9 hPa 1,0 km/h (0 Bft) S-SO 157 -2,4 C 4,7 C 0,0 km/h (0 Bft)
19.03.2015 20:15 4,5 C 4,5 C 59 % 59 % 1022,9 hPa 0,2 km/h (0 Bft) S-SO 157 -2,8 C 3,9 C 0,0 km/h (0 Bft)
19.03.2015 20:20 4,3 C 4,3 C 60 % 60 % 1022,9 hPa 0,0 km/h (0 Bft) O-SO 112 -2,8 C 3,6 C 0,0 km/h (0 Bft)
19.03.2015 20:25 4,0 C 4,0 C 60 % 60 % 1023,1 hPa 0,0 km/h (0 Bft) O-SO 112 -3,0 C 3,3 C 0,0 km/h (0 Bft)
19.03.2015 20:30 3,6 C 3,6 C 61 % 61 % 1023,1 hPa 0,0 km/h (0 Bft) O-SO 112 -3,2 C 2,9 C 0,0 km/h (0 Bft)
19.03.2015 20:35 3,2 C 3,2 C 62 % 62 % 1023,1 hPa 0,0 km/h (0 Bft) O-SO 112 -3,4 C 2,5 C 0,0 km/h (0 Bft)
19.03.2015 20:40 3,1 C 3,1 C 62 % 62 % 1023,1 hPa 0,0 km/h (0 Bft) O-SO 112 -3,5 C 2,4 C 0,0 km/h (0 Bft)
19.03.2015 20:45 3,0 C 3,0 C 63 % 63 % 1023,1 hPa 0,0 km/h (0 Bft) S-SO 157 -3,3 C 2,3 C 0,0 km/h (0 Bft)
19.03.2015 20:50 2,9 C 2,9 C 64 % 64 % 1023,1 hPa 0,0 km/h (0 Bft) S-SO 157 -3,2 C 2,2 C 0,0 km/h (0 Bft)
19.03.2015 20:55 2,6 C 2,6 C 65 % 65 % 1023,1 hPa 0,0 km/h (0 Bft) S-SO 157 -3,3 C 1,8 C 0,0 km/h (0 Bft)
19.03.2015 21:00 2,3 C 2,3 C 65 % 65 % 1023,1 hPa 0,0 km/h (0 Bft) S-SO 157 -3,6 C 1,5 C 0,0 km/h (0 Bft)
19.03.2015 21:05 2,3 C 2,3 C 66 % 66 % 1023,1 hPa 0,0 km/h (0 Bft) S-SO 157 -3,4 C 1,5 C 0,0 km/h (0 Bft)
19.03.2015 21:10 1,5 C 2,3 C 66 % 66 % 1023,1 hPa 0,0 km/h (0 Bft) S-SO 157 -4,1 C 1,4 C 0,0 km/h (0 Bft)
19.03.2015 21:15 1,3 C 2,1 C 66 % 66 % 1023,1 hPa 0,0 km/h (0 Bft) S-SO 157 -4,3 C 1,3 C 0,0 km/h (0 Bft)
19.03.2015 21:20 1,3 C 2,0 C 67 % 67 % 1023,1 hPa 0,0 km/h (0 Bft) SO 135 -4,1 C 1,2 C 0,0 km/h (0 Bft)
19.03.2015 21:25 1,4 C 1,9 C 67 % 67 % 1023,4 hPa 0,0 km/h (0 Bft) O-SO 112 -4,0 C 1,1 C 0,0 km/h (0 Bft)
19.03.2015 21:30 1,5 C 1,9 C 68 % 68 % 1023,4 hPa 0,2 km/h (0 Bft) SO 135 -3,7 C 1,1 C 2,1 km/h (1 Bft)
19.03.2015 21:35 1,5 C 2,1 C 68 % 68 % 1023,4 hPa 1,0 km/h (0 Bft) O-SO 112 -3,7 C 1,3 C 2,3 km/h (1 Bft)
19.03.2015 21:40 1,5 C 2,3 C 69 % 69 % 1023,4 hPa 1,0 km/h (0 Bft) SO 135 -3,6 C 1,6 C 1,9 km/h (1 Bft)
19.03.2015 21:45 1,6 C 2,1 C 69 % 69 % 1023,1 hPa 0,6 km/h (0 Bft) SO 135 -3,5 C 1,5 C 2,9 km/h (1 Bft)
19.03.2015 21:50 1,6 C 2,0 C 69 % 69 % 1023,1 hPa 0,5 km/h (0 Bft) SO 135 -3,5 C 1,4 C 0,0 km/h (0 Bft)
19.03.2015 21:55 1,1 C 1,8 C 69 % 69 % 1023,1 hPa 0,3 km/h (0 Bft) SO 135 -3,9 C 1,2 C 0,0 km/h (0 Bft)
19.03.2015 22:00 1,1 C 1,6 C 69 % 69 % 1023,1 hPa 0,5 km/h (0 Bft) O-SO 112 -3,9 C 1,0 C 0,0 km/h (0 Bft)
19.03.2015 22:05 1,1 C 1,6 C 69 % 69 % 1023,2 hPa 1,1 km/h (1 Bft) O-NO 67 -3,9 C 1,1 C 0,0 km/h (0 Bft)
19.03.2015 22:10 1,1 C 1,9 C 71 % 71 % 1023,2 hPa 1,4 km/h (1 Bft) SO 135 -3,6 C 1,3 C 3,5 km/h (1 Bft)
19.03.2015 22:15 1,1 C 2,0 C 71 % 71 % 1023,2 hPa 2,1 km/h (1 Bft) SO 135 -3,6 C 1,4 C 4,2 km/h (1 Bft)
19.03.2015 22:20 1,1 C 2,0 C 71 % 71 % 1023,2 hPa 2,4 km/h (1 Bft) SO 135 -3,6 C 1,5 C 2,3 km/h (1 Bft)
19.03.2015 22:25 1,1 C 2,4 C 71 % 71 % 1023,1 hPa 1,6 km/h (1 Bft) SO 135 -3,6 C 1,8 C 2,6 km/h (1 Bft)
19.03.2015 22:30 2,0 C 2,4 C 71 % 71 % 1023,1 hPa 1,6 km/h (1 Bft) SO 135 -2,7 C 1,9 C 3,7 km/h (1 Bft)
19.03.2015 22:35 1,9 C 2,3 C 71 % 71 % 1023,1 hPa 1,9 km/h (1 Bft) SO 135 -2,8 C 1,8 C 2,3 km/h (1 Bft)
19.03.2015 22:40 1,9 C 2,4 C 71 % 71 % 1023,1 hPa 1,4 km/h (1 Bft) SO 135 -2,8 C 1,9 C 0,0 km/h (0 Bft)
19.03.2015 22:45 1,4 C 2,1 C 70 % 70 % 1023,1 hPa 0,5 km/h (0 Bft) SO 135 -3,5 C 1,6 C 0,0 km/h (0 Bft)
19.03.2015 22:50 1,6 C 2,3 C 71 % 71 % 1023,1 hPa 0,0 km/h (0 Bft) SO 135 -3,1 C 1,6 C 0,0 km/h (0 Bft)
19.03.2015 22:55 1,1 C 1,9 C 70 % 70 % 1023,1 hPa 0,0 km/h (0 Bft) SO 135 -3,7 C 1,3 C 0,0 km/h (0 Bft)
19.03.2015 23:00 1,1 C 1,5 C 70 % 70 % 1023,1 hPa 0,0 km/h (0 Bft) O-SO 112 -3,7 C 0,9 C 0,0 km/h (0 Bft)
19.03.2015 23:05 1,0 C 1,8 C 71 % 71 % 1023,0 hPa 0,0 km/h (0 Bft) SO 135 -3,7 C 1,0 C 0,0 km/h (0 Bft)
19.03.2015 23:10 1,3 C 2,1 C 72 % 72 % 1023,0 hPa 0,0 km/h (0 Bft) SO 135 -3,2 C 1,2 C 0,0 km/h (0 Bft)
19.03.2015 23:15 1,3 C 1,9 C 71 % 71 % 1023,0 hPa 0,0 km/h (0 Bft) O-SO 112 -3,4 C 1,1 C 0,0 km/h (0 Bft)
19.03.2015 23:20 1,3 C 1,4 C 71 % 71 % 1023,0 hPa 0,0 km/h (0 Bft) O-SO 112 -3,4 C 0,7 C 0,0 km/h (0 Bft)
19.03.2015 23:25 1,0 C 1,0 C 71 % 71 % 1022,8 hPa 0,0 km/h (0 Bft) O-SO 112 -3,7 C 0,2 C 0,0 km/h (0 Bft)
19.03.2015 23:30 0,9 C 0,9 C 71 % 71 % 1022,8 hPa 0,0 km/h (0 Bft) O-SO 112 -3,7 C 0,1 C 0,0 km/h (0 Bft)
19.03.2015 23:35 0,5 C 0,5 C 72 % 72 % 1022,8 hPa 0,0 km/h (0 Bft) O-SO 112 -3,9 C -0,3 C 0,0 km/h (0 Bft)
19.03.2015 23:40 0,3 C 0,3 C 72 % 72 % 1022,8 hPa 0,0 km/h (0 Bft) O-SO 112 -4,1 C -0,5 C 0,0 km/h (0 Bft)
19.03.2015 23:45 0,1 C 0,1 C 72 % 72 % 1022,8 hPa 0,0 km/h (0 Bft) O-SO 112 -4,3 C -0,7 C 0,0 km/h (0 Bft)
19.03.2015 23:50 0,0 C 0,0 C 72 % 72 % 1022,8 hPa 0,0 km/h (0 Bft) O-SO 112 -4,4 C -0,8 C 0,0 km/h (0 Bft)
19.03.2015 23:55 0,0 C 0,1 C 73 % 73 % 1022,8 hPa 0,0 km/h (0 Bft) O-SO 112 -4,2 C -0,7 C 0,0 km/h (0 Bft)
_ Min-Zeit 05:45 05:50 16:10 16:10 05:00 23:55 - - 23:50 06:15 23:55
Minimum _ -0,9 C -0,3 C 43 % 43 % 1020,2 hPa 0,0 km/h (0 Bft) - - -4,4 C -0,9 C 0,0 km/h (0 Bft)
_ Max-Zeit 14:45 14:45 07:40 07:40 13:00 16:45 - - 10:10 12:20 16:45
Maximum _ 13,1 C 13,1 C 82 % 82 % 1025,8 hPa 5,1 km/h
NO (1 Bft)
- - 4,4 C 20,5 C 10,3 km/h
NO (2 Bft)
Durchschnitt _ 5,5 C 5,9 C 65 % 65 % 1022,6 hPa 1,0 km/h (0 Bft) W - -0,9 C 7,5 C 1,5 km/h (1 Bft)